Home > Time Zones > World Clock > Weather > Serbia > Niš > Past weeks

Flag for Serbia Weather past 2 weeks in Niš, Serbia

Now
59 °F

Sunny.


Feels Like: 59 °F
Forecast: 61 / 81 °F
Wind: 2 mph from North

Location: Nis Airport

Current Time: Jun 3, 2015 at 7:43:39 AM

Latest Report: Jun 3, 2015 at 7:00 AM


Visibility: 10 mi

Pressure: 30.18 "Hg

Humidity: 82%

Dew point: 54 °F

Location of NišLocation

Historic Weather in Niš — Graph

°F

Niš temperature yesterday

Maximum temperature yesterday: 84 °F (at 2:00 PM)
Minimum temperature yesterday: 52 °F (at 5:30 AM)
Average temperature yesterday: 71 °F

Past Weeks' High & Low Weather Summary

 TemperatureHumidityPressure
High88 °F (May 21, 3:30 PM)100% (May 21, 6:00 AM)30.18 "Hg (May 21, 6:00 AM)
Low45 °F (May 30, 4:30 AM)22% (May 21, 4:00 PM)29.74 "Hg (May 26, 5:30 PM)
Average65 °F67%29.93 "Hg
* Reported May 19 6:00 AM — Jun 3 6:30 AM, Niš, Weather by CustomWeather, © 2015

Note: Actual official high and low records may vary slightly from our data, if they occured in-between our weather recording intervals... More about our weather records

Advertising

Niš weather history for previous 24 hours

 ConditionsComfort  
Time TempWeatherWind HumidityBarometerVisibility
6:30 AM
Wed, Jun 3
57 °FSunny.1 mph82%30.18 "Hg10 mi
6:00 AM52 °FSunny.2 mph88%30.15 "Hg10 mi
5:30 AM54 °FClear.2 mph88%30.15 "Hg10 mi
5:00 AM52 °FClear.1 mph94%30.15 "Hg10 mi
4:30 AM52 °FClear.1 mph82%30.15 "Hg10 mi
4:00 AM54 °FClear.2 mph82%30.15 "Hg10 mi
3:30 AM59 °FClear.1 mph68%30.15 "Hg10 mi
3:00 AM57 °FClear.3 mph72%30.15 "Hg10 mi
2:30 AM57 °FClear.No wind72%30.15 "Hg10 mi
2:00 AM57 °FClear.2 mph72%30.15 "Hg10 mi
1:30 AM59 °FClear.2 mph68%30.15 "Hg10 mi
1:00 AM63 °FClear.2 mph59%30.12 "Hg10 mi
12:30 AM63 °FClear.2 mph64%30.12 "Hg10 mi
12:00 AM64 °FPassing clouds.3 mph60%30.12 "HgN/A
11:30 PM
Tue, Jun 2
66 °FClear.7 mph56%30.12 "Hg10 mi
11:00 PM68 °FClear.6 mph49%30.12 "Hg10 mi
10:30 PM72 °FClear.9 mph44%30.12 "Hg10 mi
10:00 PM73 °FClear.12 mph41%30.12 "Hg10 mi
9:30 PM73 °FPassing clouds.9 mph41%30.09 "HgN/A
9:00 PM75 °FPassing clouds.13 mph39%30.09 "HgN/A
8:30 PM75 °FSunny.12 mph39%30.07 "Hg10 mi
8:00 PM77 °FPassing clouds.10 mph36%30.07 "HgN/A
7:30 PM79 °FPassing clouds.9 mph34%30.07 "HgN/A
7:00 PM81 °FPassing clouds.12 mph32%30.07 "HgN/A
6:30 PM82 °FPassing clouds.9 mph30%30.07 "HgN/A
6:00 PM82 °FPassing clouds.7 mph30%30.07 "HgN/A
5:30 PM82 °FPassing clouds.8 mph30%30.04 "HgN/A
5:00 PM84 °FPassing clouds.8 mph29%30.07 "HgN/A
4:30 PM84 °FPassing clouds.6 mph29%30.04 "HgN/A
4:00 PM82 °FPassing clouds.5 mph30%30.04 "HgN/A
3:30 PM82 °FPassing clouds.6 mph30%30.04 "HgN/A
3:00 PM84 °FPassing clouds.3 mph29%30.07 "HgN/A
2:30 PM84 °FPassing clouds.6 mph29%30.07 "HgN/A
2:00 PM84 °FPassing clouds.3 mph31%30.07 "HgN/A
1:30 PM82 °FPassing clouds.5 mph35%30.07 "HgN/A
1:00 PM82 °FPassing clouds.2 mph32%30.09 "HgN/A
12:30 PM82 °FPassing clouds.6 mph30%30.09 "HgN/A
12:00 PM81 °FSunny.3 mph34%30.09 "Hg10 mi
11:30 AM79 °FSunny.2 mph37%30.09 "Hg10 mi
11:00 AM79 °FSunny.No wind37%30.09 "Hg10 mi
10:30 AM77 °FSunny.2 mph44%30.12 "Hg10 mi
10:00 AM73 °FPassing clouds.3 mph53%30.12 "HgN/A
9:30 AM72 °FSunny.1 mph53%30.12 "Hg10 mi
9:00 AM68 °FSunny.2 mph60%30.12 "Hg10 mi
8:30 AM66 °FPassing clouds.3 mph64%30.12 "HgN/A
8:00 AM64 °FPassing clouds.3 mph68%30.12 "HgN/A
7:30 AM61 °FPassing clouds.3 mph77%30.12 "HgN/A
7:00 AM59 °FPassing clouds.5 mph82%30.12 "HgN/A
Weather by CustomWeather, © 2015

See weather overviewHow to use our weather pages